FW0368 Weather Reports


Display with metric or nautical units.
time (UTC)temp
F
wind
direction
speed
MPH
gust
MPH
rain 1hr
in
rain 24hr
in
rain mn
in
humidity
%
barometer
mb
20200707191609 80 93 3.0 9.0 0.00 0.06 0.00 90 1008.2
20200707190057 80 98 3.0 8.0 0.00 0.06 0.00 90 1008.1
20200707184626 80 128 2.0 8.0 0.00 0.06 0.00 90 1008.1
20200707183049 80 98 2.0 9.0 0.00 0.06 0.00 91 1008.2
20200707181557 80 128 2.0 7.0 0.00 0.06 0.00 91 1008.2
20200707180049 80 130 3.0 7.0 0.00 0.06 0.00 90 1008.4
20200707174540 80 109 1.0 6.0 0.00 0.10 0.00 91 1008.7
20200707173100 80 115 2.0 7.0 0.00 0.10 0.00 90 1008.7
20200707171615 80 108 0.0 4.0 0.00 0.10 0.00 90 1008.8
20200707170034 80 115 2.0 4.0 0.00 0.15 0.10 90 1008.9
20200707164523 80 109 0.0 1.0 0.00 0.15 0.10 91 1009.0
20200707163043 80 109 0.0 0.0 0.00 0.15 0.10 91 1009.2
20200707161526 80 108 0.0 2.0 0.00 0.15 0.10 91 1009.4
20200707160037 80 108 0.0 0.0 0.00 0.15 0.10 91 1009.5
20200707154556 80 108 0.0 3.0 0.00 0.15 0.10 91 1009.4
20200707153031 80 108 0.0 2.0 0.00 0.15 0.10 90 1009.6
20200707151531 80 86 2.0 4.0 0.00 0.15 0.10 90 1009.6
20200707150019 80 76 2.0 4.0 0.00 0.15 0.10 90 1009.3
20200707144609 80 91 3.0 7.0 0.00 0.15 0.10 89 1009.5
20200707143025 80 91 3.0 6.0 0.00 0.15 0.10 88 1009.1
20200707141547 81 105 0.0 7.0 0.00 0.15 0.10 88 1009.2
20200707140020 80 108 3.0 7.0 0.00 0.15 0.10 88 1009.2
20200707134539 81 109 0.0 6.0 0.00 0.15 0.10 88 1008.7
20200707133027 81 111 1.0 5.0 0.00 0.15 0.10 87 1008.6
20200707131509 80 103 2.0 6.0 0.00 0.15 0.10 88 1008.6
20200707130038 80 117 2.0 7.0 0.00 0.15 0.10 88 1008.2
20200707124521 80 118 2.0 6.0 0.00 0.15 0.10 88 1007.9
20200707123014 80 107 2.0 7.0 0.00 0.15 0.10 89 1007.7
20200707121513 80 140 2.0 8.0 0.00 0.15 0.10 89 1007.3
20200707120007 80 128 0.0 5.0 0.00 0.15 0.10 89 1006.9
20200707114506 81 124 1.0 3.0 0.00 0.15 0.10 90 1006.8
20200707113007 81 123 2.0 6.0 0.01 0.15 0.10 89 1006.5
20200707111502 81 115 1.0 7.0 0.01 0.15 0.10 89 1006.1
20200707110010 81 107 1.0 6.0 0.01 0.15 0.10 88 1005.7
20200707104613 81 117 3.0 8.0 0.01 0.15 0.10 87 1005.4
20200707103159 81 113 3.0 8.0 0.05 0.14 0.09 87 1005.3
20200707101823 81 119 4.0 10.0 0.06 0.14 0.09 87 1005.6
20200707100121 81 98 3.0 10.0 0.06 0.14 0.09 87 1006.2
20200707094617 83 73 1.0 5.0 0.06 0.14 0.09 83 1006.1
20200707093150 85 144 3.0 10.0 0.01 0.09 0.05 78 1006.3
20200707091624 89 182 11.0 22.0 0.00 0.09 0.04 70 1006.2
20200707090110 90 96 4.0 7.0 0.00 0.09 0.04 72 1005.4
20200707084700 89 55 6.0 10.0 0.00 0.09 0.04 74 1004.9
20200707083136 88 94 4.0 7.0 0.00 0.09 0.04 75 1005.1
20200707081716 87 111 3.0 8.0 0.00 0.09 0.04 76 1005.5
20200707080144 85 100 2.0 10.0 0.00 0.09 0.04 80 1005.7
20200707074647 85 77 4.0 9.0 0.00 0.09 0.04 79 1005.7
20200707073149 87 96 8.0 17.0 0.00 0.09 0.04 76 1005.5
20200707071701 88 140 1.0 8.0 0.00 0.09 0.04 74 1005.8
20200707070230 89 135 3.0 9.0 0.00 0.09 0.04 72 1006.2
20200707064647 89 101 4.0 11.0 0.00 0.09 0.04 72 1006.8
20200707063112 90 118 6.0 12.0 0.00 0.09 0.04 70 1006.6
20200707061742 92 103 5.0 9.0 0.00 0.09 0.04 66 1006.8
20200707060111 92 132 3.0 11.0 0.00 0.09 0.04 66 1006.7
20200707054811 92 125 3.0 12.0 0.00 0.09 0.04 66 1007.0
20200707053047 92 184 3.0 8.0 0.00 0.09 0.04 68 1007.2
20200707051611 91 236 5.0 11.0 0.00 0.09 0.04 68 1007.2
20200707050109 91 167 4.0 11.0 0.00 0.09 0.04 71 1007.4
20200707044548 90 115 4.0 11.0 0.00 0.09 0.04 72 1007.6
20200707043135 90 124 6.0 13.0 0.00 0.09 0.04 73 1007.6
20200707041537 89 128 4.0 10.0 0.00 0.09 0.04 74 1008.1
20200707040031 89 159 4.0 12.0 0.00 0.09 0.04 75 1008.3
20200707034519 89 147 6.0 10.0 0.00 0.09 0.04 75 1008.2
20200707033018 88 110 3.0 11.0 0.00 0.09 0.04 77 1008.1
20200707031524 88 109 4.0 12.0 0.00 0.09 0.04 77 1008.1
20200707030012 87 113 6.0 12.0 0.00 0.09 0.04 76 1008.1
20200707024510 87 98 6.0 15.0 0.00 0.09 0.04 79 1008.0
20200707023011 87 99 4.0 10.0 0.00 0.09 0.04 80 1008.2